EXS78DG BIKF-EGCC

Flight info

Callsign EXS78DG
Flight time N/A
Altitude 35000
Route RIMUM1C RIMUM DCT RUMUX DCT RAPAX DCT 61N017W 60N015W DCT GOMUP/N0440F350 DCT GINGA DCT MAKUX
Aircraft B738/M-SDE2E3FGHIRWXY/LB1

Departure

Time 2026-04-27 23:32
Airport Keflavik International Airport (BIKF)

Arrival

Time N/A
Airport Manchester Airport (EGCC)
Time Latitude Longitude Altitude Speed Heading
2026-04-27 23:18 63.99327 -22.62151 139 ft 0 kts 269°
2026-04-27 23:21 63.99328 -22.62105 139 ft 4 kts 264°
2026-04-27 23:21 63.99333 -22.62046 139 ft 4 kts 249°
2026-04-27 23:22 63.99345 -22.61997 139 ft 4 kts 210°
2026-04-27 23:22 63.99356 -22.61986 139 ft 0 kts 180°
2026-04-27 23:24 63.99357 -22.61986 139 ft 0 kts 180°
2026-04-27 23:26 63.99355 -22.61986 139 ft 1 kts 180°
2026-04-27 23:27 63.99335 -22.61986 139 ft 5 kts 179°
2026-04-27 23:27 63.99300 -22.61985 139 ft 5 kts 179°
2026-04-27 23:27 63.99266 -22.61984 139 ft 5 kts 179°
2026-04-27 23:27 63.99217 -22.61984 139 ft 9 kts 174°
2026-04-27 23:28 63.99174 -22.61894 140 ft 9 kts 105°
2026-04-27 23:28 63.99173 -22.61752 143 ft 9 kts 90°
2026-04-27 23:28 63.99172 -22.61593 146 ft 12 kts 91°
2026-04-27 23:28 63.99171 -22.61397 150 ft 12 kts 91°
2026-04-27 23:29 63.99172 -22.61207 154 ft 12 kts 86°
2026-04-27 23:29 63.99174 -22.61021 158 ft 12 kts 90°
2026-04-27 23:29 63.99173 -22.60891 160 ft 5 kts 91°
2026-04-27 23:29 63.99172 -22.60818 163 ft 2 kts 92°
2026-04-27 23:30 63.99172 -22.60807 163 ft 0 kts 92°
2026-04-27 23:30 63.99171 -22.60784 164 ft 5 kts 92°
2026-04-27 23:30 63.99168 -22.60630 170 ft 12 kts 93°
2026-04-27 23:31 63.99116 -22.60538 173 ft 9 kts 179°
2026-04-27 23:31 63.99101 -22.60538 173 ft 0 kts 179°
2026-04-27 23:31 63.99090 -22.60537 173 ft 8 kts 179°
2026-04-27 23:32 63.98726 -22.60543 171 ft 97 kts 181°
2026-04-27 23:32 63.97799 -22.60554 207 ft 170 kts 181°
2026-04-27 23:32 63.96564 -22.60767 938 ft 188 kts 180°
2026-04-27 23:32 63.95288 -22.60292 1813 ft 180 kts 155°
2026-04-27 23:33 63.94246 -22.58962 2982 ft 172 kts 153°
2026-04-27 23:33 63.93087 -22.57831 3343 ft 191 kts 163°
2026-04-27 23:33 63.91812 -22.56711 3608 ft 203 kts 159°
2026-04-27 23:33 63.90458 -22.55304 3787 ft 221 kts 158°
2026-04-27 23:34 63.89048 -22.53810 4235 ft 226 kts 159°
2026-04-27 23:34 63.87608 -22.52303 4716 ft 229 kts 159°
2026-04-27 23:34 63.86151 -22.50794 5205 ft 232 kts 160°
2026-04-27 23:34 63.84691 -22.49295 5666 ft 235 kts 160°
2026-04-27 23:35 63.83201 -22.47782 6214 ft 235 kts 161°
2026-04-27 23:35 63.81706 -22.46198 6648 ft 240 kts 158°
2026-04-27 23:35 63.80194 -22.44625 7124 ft 241 kts 161°
2026-04-27 23:35 63.78664 -22.43173 7595 ft 243 kts 161°
2026-04-27 23:36 63.77105 -22.41667 8134 ft 244 kts 161°
2026-04-27 23:36 63.75543 -22.40117 8611 ft 246 kts 160°
2026-04-27 23:36 63.73964 -22.38547 9098 ft 248 kts 162°
2026-04-27 23:36 63.72377 -22.37015 9587 ft 248 kts 163°
2026-04-27 23:37 63.70769 -22.35561 9968 ft 252 kts 162°
2026-04-27 23:37 63.69136 -22.33854 10049 ft 266 kts 159°
2026-04-27 23:37 63.67446 -22.31969 10135 ft 274 kts 162°
2026-04-27 23:37 63.65669 -22.30307 10221 ft 281 kts 162°
2026-04-27 23:38 63.63871 -22.28357 10312 ft 291 kts 159°
2026-04-27 23:38 63.62084 -22.26251 10417 ft 296 kts 159°
2026-04-27 23:38 63.60220 -22.24230 10592 ft 298 kts 160°
2026-04-27 23:38 63.58347 -22.22231 10816 ft 298 kts 161°
2026-04-27 23:39 63.56472 -22.20236 11029 ft 299 kts 161°
2026-04-27 23:39 63.54584 -22.18233 11710 ft 302 kts 162°
2026-04-27 23:39 63.52684 -22.16213 12562 ft 302 kts 162°
2026-04-27 23:39 63.50784 -22.14191 13345 ft 304 kts 163°
2026-04-27 23:40 63.48860 -22.12150 14049 ft 308 kts 163°
2026-04-27 23:40 63.46937 -22.10113 14767 ft 311 kts 163°
2026-04-27 23:40 63.44977 -22.08032 15508 ft 313 kts 163°
2026-04-27 23:40 63.43002 -22.05936 16201 ft 316 kts 163°
2026-04-27 23:41 63.41004 -22.03820 16874 ft 319 kts 163°
2026-04-27 23:41 63.38985 -22.01689 17471 ft 324 kts 163°
2026-04-27 23:41 63.36942 -21.99534 18099 ft 326 kts 163°
2026-04-27 23:41 63.34880 -21.97359 18722 ft 330 kts 163°
2026-04-27 23:42 63.32791 -21.95162 19271 ft 334 kts 163°
2026-04-27 23:42 63.30676 -21.92940 19825 ft 338 kts 163°
2026-04-27 23:42 63.28535 -21.90695 20366 ft 342 kts 163°
2026-04-27 23:42 63.26378 -21.88432 20930 ft 344 kts 163°
2026-04-27 23:43 63.24203 -21.86156 21464 ft 347 kts 164°
2026-04-27 23:43 63.22031 -21.83890 21921 ft 352 kts 164°
2026-04-27 23:43 63.19809 -21.81574 22399 ft 355 kts 164°
2026-04-27 23:43 63.17555 -21.79227 22853 ft 359 kts 164°
2026-04-27 23:44 63.15290 -21.76869 23349 ft 361 kts 163°
2026-04-27 23:44 63.10870 -21.72288 24137 ft 369 kts 163°
2026-04-27 23:44 63.08545 -21.69832 24587 ft 374 kts 160°
2026-04-27 23:45 63.06410 -21.66286 24993 ft 399 kts 142°
2026-04-27 23:45 63.04579 -21.61382 25460 ft 405 kts 140°
2026-04-27 23:45 63.02741 -21.56664 25823 ft 407 kts 141°
2026-04-27 23:45 63.00854 -21.51990 26151 ft 410 kts 142°
2026-04-27 23:46 62.98946 -21.47306 26551 ft 412 kts 142°
2026-04-27 23:46 62.97051 -21.42663 26946 ft 414 kts 142°
2026-04-27 23:46 62.95126 -21.37945 27288 ft 417 kts 142°
2026-04-27 23:46 62.93182 -21.33177 27627 ft 420 kts 142°
2026-04-27 23:47 62.91230 -21.28389 27979 ft 422 kts 142°
2026-04-27 23:47 62.89273 -21.23594 28324 ft 423 kts 142°
2026-04-27 23:47 62.87303 -21.18774 28654 ft 426 kts 142°
2026-04-27 23:47 62.85318 -21.13928 28933 ft 429 kts 142°
2026-04-27 23:48 62.83320 -21.09061 29215 ft 431 kts 142°
2026-04-27 23:48 62.81305 -21.04164 29489 ft 434 kts 142°
2026-04-27 23:48 62.79310 -20.99321 29792 ft 435 kts 142°
2026-04-27 23:48 62.77280 -20.94405 30087 ft 436 kts 142°
2026-04-27 23:49 62.75242 -20.89481 30353 ft 439 kts 142°
2026-04-27 23:49 62.73190 -20.84535 30615 ft 440 kts 142°
2026-04-27 23:49 62.71129 -20.79582 30852 ft 442 kts 142°
2026-04-27 23:49 62.69060 -20.74614 31185 ft 442 kts 142°
2026-04-27 23:50 62.66998 -20.69672 31553 ft 440 kts 142°
2026-04-27 23:50 62.64936 -20.64743 31873 ft 440 kts 142°
2026-04-27 23:50 62.62876 -20.59833 32187 ft 440 kts 142°
2026-04-27 23:50 62.60838 -20.54991 32443 ft 440 kts 142°
2026-04-27 23:51 62.58743 -20.50022 32687 ft 441 kts 142°
2026-04-27 23:51 62.56702 -20.45190 32957 ft 441 kts 142°
2026-04-27 23:51 62.54633 -20.40300 33298 ft 439 kts 142°
2026-04-27 23:51 62.52570 -20.35434 33598 ft 438 kts 143°
2026-04-27 23:52 62.50507 -20.30583 33807 ft 440 kts 143°
2026-04-27 23:52 62.48429 -20.25713 33998 ft 441 kts 143°
2026-04-27 23:52 62.46346 -20.20838 34284 ft 440 kts 143°
2026-04-27 23:52 62.44275 -20.15994 34610 ft 438 kts 142°
2026-04-27 23:53 62.42207 -20.11167 34811 ft 439 kts 142°
2026-04-27 23:53 62.40113 -20.06302 34804 ft 443 kts 142°
2026-04-27 23:53 62.35884 -19.96747 34807 ft 435 kts 146°
2026-04-27 23:54 62.31458 -19.88220 34822 ft 428 kts 149°
2026-04-27 23:54 62.26949 -19.79853 34807 ft 428 kts 148°
2026-04-27 23:55 62.22462 -19.71442 34823 ft 428 kts 148°
2026-04-27 23:55 62.17991 -19.62994 34832 ft 429 kts 148°
2026-04-27 23:56 62.13521 -19.54563 34816 ft 429 kts 148°
2026-04-27 23:56 62.09066 -19.46190 34831 ft 430 kts 148°
2026-04-27 23:57 62.04571 -19.37781 34833 ft 430 kts 148°
2026-04-27 23:57 62.00060 -19.29376 34831 ft 431 kts 148°
2026-04-27 23:58 61.95530 -19.20968 34831 ft 432 kts 148°
2026-04-27 23:58 61.91021 -19.12632 34835 ft 433 kts 147°
2026-04-27 23:59 61.86465 -19.04241 34836 ft 434 kts 147°
2026-04-27 23:59 61.81896 -18.95865 34845 ft 435 kts 147°
2026-04-28 00:00 61.77305 -18.87480 34844 ft 436 kts 147°
2026-04-28 00:00 61.72733 -18.79166 34838 ft 437 kts 147°
2026-04-28 00:01 61.68117 -18.70804 34854 ft 438 kts 147°
2026-04-28 00:01 61.63495 -18.62463 34852 ft 438 kts 147°
2026-04-28 00:02 61.58866 -18.54145 34852 ft 438 kts 147°
2026-04-28 00:02 61.54228 -18.45839 34859 ft 438 kts 147°
2026-04-28 00:03 61.49644 -18.37360 34852 ft 445 kts 140°
2026-04-28 00:03 61.45896 -18.26937 34863 ft 453 kts 133°
2026-04-28 00:04 61.40347 -18.10983 34867 ft 452 kts 134°
2026-04-28 00:05 61.36608 -18.00451 34876 ft 451 kts 134°
2026-04-28 00:05 61.32867 -17.89987 34956 ft 450 kts 134°
2026-04-28 00:06 61.29120 -17.79557 34961 ft 450 kts 134°
2026-04-28 00:06 61.25385 -17.69204 34974 ft 451 kts 134°
2026-04-28 00:07 61.21611 -17.58789 34974 ft 452 kts 133°
2026-04-28 00:07 61.17821 -17.48372 34973 ft 452 kts 133°
2026-04-28 00:08 61.14023 -17.37979 34982 ft 452 kts 133°
2026-04-28 00:08 61.10213 -17.27602 34981 ft 453 kts 133°
2026-04-28 00:09 61.07013 -17.18921 34982 ft 453 kts 133°
2026-04-28 00:09 61.03214 -17.08647 34997 ft 453 kts 133°
2026-04-28 00:10 60.99352 -16.98405 35000 ft 451 kts 137°
2026-04-28 00:10 60.95022 -16.89212 34993 ft 445 kts 141°
2026-04-28 00:11 60.90613 -16.80301 35006 ft 444 kts 141°
2026-04-28 00:11 60.86236 -16.71361 35007 ft 443 kts 141°
2026-04-28 00:12 60.81885 -16.62421 35015 ft 443 kts 140°
2026-04-28 00:12 60.77542 -16.53500 35010 ft 442 kts 140°
2026-04-28 00:13 60.73236 -16.44686 35014 ft 440 kts 140°
2026-04-28 00:13 60.68906 -16.35852 35021 ft 440 kts 140°
2026-04-28 00:14 60.64567 -16.27044 35029 ft 440 kts 140°
2026-04-28 00:14 60.60216 -16.18252 35032 ft 441 kts 140°
2026-04-28 00:15 60.55881 -16.09523 35040 ft 442 kts 140°
2026-04-28 00:15 60.51507 -16.00747 35041 ft 443 kts 140°
2026-04-28 00:16 60.47112 -15.91968 35040 ft 443 kts 140°
2026-04-28 00:16 60.42707 -15.83205 35052 ft 444 kts 140°
2026-04-28 00:17 60.38290 -15.74451 35059 ft 445 kts 140°
2026-04-28 00:17 60.33855 -15.65699 35057 ft 446 kts 140°
2026-04-28 00:18 60.29414 -15.56969 35067 ft 446 kts 140°
2026-04-28 00:18 60.24989 -15.48303 35066 ft 446 kts 140°
2026-04-28 00:19 60.20528 -15.39599 35079 ft 446 kts 140°
2026-04-28 00:19 60.16064 -15.30930 35081 ft 446 kts 140°
2026-04-28 00:20 60.11601 -15.22303 35087 ft 445 kts 140°
2026-04-28 00:20 60.07178 -15.13772 35083 ft 445 kts 140°
2026-04-28 00:21 60.02718 -15.05204 35103 ft 445 kts 140°
2026-04-28 00:21 59.98237 -14.96657 35102 ft 445 kts 140°
2026-04-28 00:22 59.93721 -14.88213 35114 ft 445 kts 140°
2026-04-28 00:22 59.89185 -14.79792 35114 ft 446 kts 140°
2026-04-28 00:23 59.84677 -14.71434 35119 ft 446 kts 140°
2026-04-28 00:23 59.80141 -14.63041 35124 ft 446 kts 140°
2026-04-28 00:24 59.75588 -14.54649 35136 ft 447 kts 140°
2026-04-28 00:24 59.71029 -14.46280 35140 ft 447 kts 140°
2026-04-28 00:25 59.66457 -14.37920 35151 ft 447 kts 140°
2026-04-28 00:25 59.61912 -14.29641 35173 ft 447 kts 140°
2026-04-28 00:26 59.57335 -14.21335 35275 ft 446 kts 140°
2026-04-28 00:26 59.52767 -14.13078 35295 ft 446 kts 140°
2026-04-28 00:27 59.48183 -14.04825 35313 ft 447 kts 140°
2026-04-28 00:27 59.43622 -13.96645 35313 ft 448 kts 140°
2026-04-28 00:28 59.39011 -13.88406 35315 ft 448 kts 140°
2026-04-28 00:28 59.34399 -13.80197 35324 ft 449 kts 140°
2026-04-28 00:29 59.29764 -13.71983 35327 ft 450 kts 140°
2026-04-28 00:29 59.25112 -13.63765 35321 ft 451 kts 140°
2026-04-28 00:30 59.20486 -13.55637 35328 ft 450 kts 140°
2026-04-28 00:30 59.15834 -13.47479 35333 ft 450 kts 140°
2026-04-28 00:31 59.11179 -13.39349 35332 ft 449 kts 139°
2026-04-28 00:31 59.06526 -13.31250 35336 ft 448 kts 140°
2026-04-28 00:32 59.01907 -13.23243 35341 ft 448 kts 140°
2026-04-28 00:32 58.97254 -13.15203 35339 ft 448 kts 139°
2026-04-28 00:33 58.92597 -13.07194 35345 ft 448 kts 140°
2026-04-28 00:33 58.87934 -12.99207 35344 ft 448 kts 140°
2026-04-28 00:34 58.83300 -12.91296 35356 ft 448 kts 139°
2026-04-28 00:34 58.78624 -12.83343 35349 ft 448 kts 140°
2026-04-28 00:35 58.73935 -12.75400 35356 ft 449 kts 139°
2026-04-28 00:35 58.69242 -12.67476 35363 ft 449 kts 139°
2026-04-28 00:36 58.64541 -12.59570 35350 ft 450 kts 139°
2026-04-28 00:36 58.59824 -12.51668 35372 ft 450 kts 139°
2026-04-28 00:37 58.55133 -12.43837 35371 ft 450 kts 139°
2026-04-28 00:37 58.50410 -12.35987 35366 ft 451 kts 139°
2026-04-28 00:38 58.45671 -12.28124 35374 ft 451 kts 139°
2026-04-28 00:38 58.40934 -12.20304 35378 ft 451 kts 139°
2026-04-28 00:39 58.36173 -12.12480 35377 ft 452 kts 139°
2026-04-28 00:39 58.31439 -12.04721 35381 ft 452 kts 139°
2026-04-28 00:40 58.26678 -11.96945 35402 ft 452 kts 139°
2026-04-28 00:40 58.21906 -11.89182 35419 ft 452 kts 139°
2026-04-28 00:41 58.17129 -11.81439 35415 ft 452 kts 140°